Showing default

ORBCOMM FM 105, 41181

Orbit data source: Space-Track

ORBCOMM FM 105, 41181 is a payload satellite owned by Orbcomm (US) in LEO that was launched on Tue, 22 Dec 2015 UTC via an FALCON 9 launch vehicle from the Air Force Eastern Test Range (AFETR). Payload-class satellites include a variety of spacecraft equipped with specific instruments for various scientific and technological missions. These include communications satellites like Starlink; space stations such as the ISS; scientific satellites like the Hubble; Earth observation satellites from companies like Planet Labs, Umbra, and HawkEye 360; GPS; miniature CubeSats for education and research; and military/defense satellites.

Loading next visibility...
Identifier
41181, 2015-081C
Orbit
LEO
Last TLE update
7 hours ago
Origin
Manufacturer
SNC Louisville
Mission
Non-operational Commercial Communications
Bus & Motor
SN-100A, Unknown motor
Mass
172 kg wet, 158 kg dry
Launch date (UTC)
2015-12-22 (10 years ago)
Launch vehicle
FALCON 9
Launch site
Air Force Eastern Test Range (AFETR)
Object type
Payload
Rocket body
Debris
Shape & HBR
Box + 1 Pan + 1 Ant, 13 m
Radar Cross Section
2.222 m², Medium (>0.1 m² and < 1m²)

Expand to show TLE details & history

TLE from 7 hours ago
0 ORBCOMM FM 105
1 41181U 15081C   25182.60153605  .00000116  00000-0  77291-4 0  9992
2 41181  47.0006 134.4310 0001845 356.6749   3.4119 14.45228852502835
Epoch: 2025-07-01T14:26Z
TLE epoch observation values (Epoch: 2025-07-01T14:26:12.714Z)
Latitude
-0.00001°
Longitude
-2.01663°
Altitude
740.177 km
Speed
7.487 km/s
True Right ascension
08h 57m 43s
True Declination
0° 00' 00"
Sunlit
Object was in daylight at epoch
Visualization orbit readout
Latitude
20.38096°
Longitude
156.41245°
Altitude
742.28 km
Speed
7.486 km/s
Apparent Right ascension
20h 20m 00s
Apparent Declination
-8° 08' 26"
Sunlit
Object is in full shadow
Visualization observer readout
Local Sidereal Time
09:26:38
Azimuth
29.581° NE
Elevation
-54.91°
Doppler factor
1
Orbital elements
Apogee altitude
743.816 km
Perigee altitude
741.188 km
Semi-major axis
7,120.639 km
Eccentricity
0.00018
Inclination
47.0006°
RAAN
134.431°
Arg. of periapsis
356.6749°
True anomaly
Unknown
Mean anomaly
3.4119°
Eccentric anomaly
Unknown
Mean motion
3.61214 °/min
Orbital period
99.66 mins
BSTAR
0.000077291
Loading maneuver chart data...
Loading SW <> Apogee altitude chart data...
Loading historical data...
Loading historical data...
Loading historical data...
Loading historical data...
Loading historical data...
Loading historical data...
Loading historical data...

ORBCOMM FM 105 Visibility forecast

Observer location: undefined°, undefined°

Span
Click to sort rows by Start time (UTC) header in descending order
Start Az.
Max El. time (UTC)
Max El. Az.
Max El.
End time (UTC)
End Az.
7 mins2025-07-01 22:53:19.730Z183.548° SSW2025-07-01 22:56:19.730Z142.667° SSE22.623°2025-07-01 23:00:19.730Z86.295° E
8 mins2025-07-02 00:37:19.730Z244.88° WSW2025-07-02 00:40:19.730Z265.129° W43.956°2025-07-02 00:45:19.730Z60.978° ENE
8 mins2025-07-02 02:22:19.730Z290.68° WNW2025-07-02 02:25:19.730Z340.888° N32.522°2025-07-02 02:30:19.730Z60.705° ENE
8 mins2025-07-02 04:07:19.730Z306.659° NW2025-07-02 04:11:19.730Z24.775° NE34.504°2025-07-02 04:15:19.730Z82.507° E
8 mins2025-07-02 05:52:19.730Z293.865° NW2025-07-02 05:55:19.730Z255.143° W43.399°2025-07-02 06:00:19.730Z127.339° SE
5 mins2025-07-02 07:37:19.730Z257.14° W2025-07-02 07:39:19.730Z231.197° WSW16.681°2025-07-02 07:42:19.730Z192.528° SSW
|